EHI
0 0 0 0 0 0 0 0 0 0 0 0 0 0 0 0 0 0 0 1 5 20 51 81 95 96 95 96 97 97 97 97 97 96 91 85 77 65 49 34 24 16 9 6
0 0 0 0 0 0 0 0 0 0 0 0 0 0 0 0 0 0 0 1 5 22 55 84 94 96 95 95 97 97 97 97 97 95 89 79 66 48 32 21 14 9 5 3
0 0 0 0 0 0 0 0 0 0 0 0 0 0 0 0 0 0 0 1 4 21 55 84 95 96 96 95 96 97 97 97 96 92 79 62 43 26 15 9 5 2 1 0
0 0 0 0 0 0 0 0 0 0 0 0 0 0 0 0 0 0 0 0 2 18 51 82 95 98 97 96 97 97 97 96 94 84 67 47 28 15 9 5 2 0 0 0
0 0 0 0 0 0 0 0 0 0 0 0 0 0 0 0 0 0 0 0 2 17 49 81 95 99 99 98 97 95 93 91 85 74 59 41 24 11 6 2 0 0 0 0
0 0 0 0 0 0 0 0 0 0 0 0 0 0 0 0 0 0 0 1 5 22 54 82 95 98 96 92 85 79 74 69 63 54 43 30 15 6 2 0 0 0 0 0
0 0 0 0 0 0 0 0 0 0 0 0 0 0 0 0 0 0 1 4 12 34 65 86 92 89 81 70 59 49 42 36 31 25 19 11 5 1 0 0 0 0 0 0
0 0 0 0 0 0 0 0 0 0 0 0 0 0 0 0 0 0 2 7 22 49 75 86 81 69 55 41 30 22 16 12 8 6 3 1 0 0 0 0 0 0 0 0
0 0 0 0 0 0 0 0 0 0 0 0 0 0 0 0 0 0 2 12 34 62 79 76 61 44 30 19 11 6 4 3 1 0 0 0 0 0 0 0 0 0 0 0
0 0 0 0 0 0 0 0 0 0 0 0 0 0 0 0 0 0 3 18 47 72 76 60 40 24 12 5 2 1 1 0 0 0 0 0 0 0 0 0 0 0 0 0
0 0 0 0 0 0 0 0 0 0 0 0 0 0 0 0 0 0 5 26 59 77 69 46 24 10 3 0 0 0 0 0 0 0 0 0 0 0 0 0 0 0 0 0
0 0 0 0 0 0 0 0 0 0 0 0 0 0 0 0 1 4 14 40 68 75 56 31 13 3 0 0 0 0 0 0 0 0 0 0 0 0 0 0 0 0 0 0
0 0 0 0 0 0 0 0 0 0 0 0 0 0 1 1 3 11 28 50 64 57 35 16 5 1 0 0 0 0 0 0 0 0 0 0 0 0 0 0 0 0 0 0
0 0 0 0 0 0 0 0 0 0 0 0 0 0 1 2 5 15 30 42 42 30 15 5 1 0 0 0 0 0 0 0 0 0 0 0 0 0 0 0 0 0 0 0
0 0 0 0 0 0 0 0 0 0 0 0 0 0 4 9 14 20 28 28 20 12 5 1 0 0 0 0 0 0 0 0 0 0 0 0 0 0 0 0 0 0 0 0
0 0 0 0 0 0 0 0 0 0 0 0 1 3 10 23 31 34 32 24 13 6 3 1 0 0 0 0 0 0 0 0 0 0 0 0 0 0 0 0 0 0 0 0
0 0 0 0 0 0 0 0 0 0 0 0 1 5 13 24 32 33 28 19 9 4 2 1 0 0 0 0 0 0 0 0 0 0 0 0 0 0 0 0 0 0 0 0
0 0 0 0 0 0 0 0 0 0 0 0 1 3 6 9 12 12 11 8 4 1 1 0 0 0 0 0 0 0 0 0 0 0 0 0 0 0 0 0 0 0 0 0
0 0 0 0 0 0 0 0 0 0 0 0 0 0 0 0 0 0 0 1 0 0 0 0 0 0 0 0 0 0 0 0 0 0 0 0 0 0 0 0 0 0 0 0
0 0 0 0 0 0 0 0 0 0 0 0 0 0 0 0 0 0 0 0 0 0 0 0 0 0 0 0 0 0 0 0 0 0 0 0 0 0 0 0 0 0 0 0
0 0 0 0 0 0 0 0 0 0 0 0 0 0 0 0 0 0 0 0 0 0 0 0 0 0 0 0 0 0 0 0 0 0 0 0 0 0 0 0 0 0 0 0
0 0 0 0 0 0 0 0 0 0 0 0 0 0 0 0 0 0 0 0 0 0 0 0 0 0 0 0 0 0 0 0 0 0 0 0 0 0 0 0 0 0 0 0
0 0 0 0 0 0 0 0 0 0 0 0 0 0 0 0 0 0 0 0 0 0 0 0 0 0 0 0 0 0 0 0 0 0 0 0 0 0 0 0 0 0 0 0
0 0 0 0 0 0 0 0 0 0 0 0 0 0 0 0 0 0 0 0 0 0 0 0 0 0 0 0 0 0 0 0 0 0 0 0 0 0 0 0 0 0 0 0
0 0 0 0 0 0 0 0 0 0 0 0 0 0 0 0 0 0 0 0 0 0 0 0 0 0 0 0 0 0 0 0 0 0 0 0 0 0 0 0 0 0 0 0
0 0 0 0 0 0 0 0 0 0 0 0 0 0 0 0 0 0 0 0 0 0 0 0 0 0 0 0 0 0 0 0 0 0 0 0 0 0 0 0 0 0 0 0
Wind_Speed
16 15 17 18 21 20 20 21 19 17 19 21 20 18 15 14 12 13 13 12 11 10 11 14 15 14 11 12 12 10 10 10 8 7 7 6 6 6 6 6 6 6 6 6
17 20 20 19 19 21 21 21 20 17 15 13 13 14 13 13 16 14 14 13 10 10 10 16 16 15 13 11 11 10 9 10 9 7 6 6 7 6 6 6 6 6 6 4
22 19 22 21 20 18 19 17 17 16 16 17 18 18 15 14 19 22 18 15 14 12 12 18 19 17 15 12 11 9 9 9 8 9 7 8 7 7 6 6 4 5 5 5
21 23 12 13 17 17 14 13 15 16 16 15 17 17 16 17 21 22 21 19 16 14 13 17 18 17 15 13 10 8 8 8 8 9 10 11 8 8 7 5 5 4 4 4
18 19 18 15 14 13 13 13 15 15 15 16 17 18 17 17 18 15 17 18 16 14 14 17 17 15 13 12 10 9 9 9 8 7 8 7 6 6 6 6 5 4 4 3
20 18 16 16 15 13 12 13 13 13 12 16 17 19 19 17 19 15 13 11 12 12 12 17 16 15 13 12 11 10 9 8 7 7 6 7 9 8 7 5 5 3 5 4
21 21 17 12 12 13 14 11 10 12 13 17 19 19 17 16 17 11 4 1 4 7 15 17 17 16 15 14 12 11 10 8 7 8 8 8 8 7 6 4 3 1 3 5
20 20 21 16 13 13 14 15 12 12 13 12 11 9 8 8 5 2 1 3 6 10 16 18 16 16 15 15 13 12 11 9 8 8 7 7 6 4 4 2 1 1 3 6
18 17 20 22 19 17 16 14 16 15 16 16 14 16 15 7 7 7 7 6 6 13 17 18 16 14 14 13 12 11 11 9 8 8 7 6 4 5 6 3 1 3 3 3
13 12 13 13 17 19 17 14 10 13 14 15 14 15 11 9 6 5 6 3 8 16 17 17 15 14 12 12 11 10 9 9 8 7 6 6 5 5 3 3 5 5 3 3
5 8 14 10 12 13 15 16 14 12 12 14 13 9 4 6 7 6 5 6 15 18 18 16 14 14 14 12 11 9 8 8 6 5 4 5 4 4 3 3 4 3 2 0
7 7 12 15 13 13 14 15 14 12 14 15 14 12 8 9 12 15 13 4 16 19 18 16 15 15 14 12 10 8 7 6 5 5 5 4 3 3 2 4 3 2 1 2
10 5 9 13 13 14 13 13 13 12 10 11 12 8 9 13 15 15 14 13 15 17 17 16 15 13 12 11 9 8 6 6 6 6 5 4 3 3 3 3 2 1 1 2
6 7 11 14 10 7 10 10 11 12 12 12 13 10 9 11 11 11 11 10 11 13 14 15 14 13 12 10 9 9 9 8 7 7 5 4 3 3 2 2 2 3 4 4
5 10 13 17 19 17 14 12 8 8 13 14 11 6 8 7 6 5 8 11 11 13 14 15 14 13 12 12 11 10 9 8 7 5 4 2 1 1 1 3 4 4 5 6
5 8 12 16 17 18 19 17 16 15 15 15 13 5 10 12 13 12 8 10 12 12 14 15 15 14 13 12 11 10 8 6 4 2 0 1 1 1 2 2 3 4 5 5
5 6 10 13 16 17 19 17 17 16 10 10 8 11 12 14 16 15 9 5 9 12 14 14 14 13 12 11 10 9 5 1 1 1 1 1 1 3 3 4 5 5 6 6
6 8 8 11 13 17 13 7 4 4 11 11 9 10 10 11 14 16 14 10 11 14 14 13 13 13 11 10 8 5 2 2 3 2 2 2 2 3 3 5 6 5 5 5
8 8 8 10 13 14 8 7 6 3 9 12 10 9 9 6 8 14 15 13 13 14 14 13 12 12 10 7 5 3 2 2 2 3 3 4 4 4 5 6 6 6 5 4
7 7 9 10 12 9 5 5 6 4 5 10 10 10 10 9 3 6 10 12 14 14 13 13 11 10 8 4 3 3 3 3 4 5 5 5 5 4 5 6 5 5 4 4
8 8 10 12 12 3 6 5 7 4 4 8 8 8 8 7 9 9 11 12 13 14 13 11 10 7 5 4 3 4 5 5 5 5 4 4 4 3 6 5 3 4 5 4
5 5 6 7 9 2 9 7 7 6 5 6 7 6 10 14 14 13 12 12 13 13 11 9 7 5 4 4 5 6 5 4 4 4 4 4 5 6 6 5 4 4 5 5
5 3 2 2 1 3 4 5 5 6 7 8 7 5 11 14 14 14 13 12 12 11 8 6 7 7 6 5 5 5 5 4 4 4 4 4 6 6 6 5 5 5 5 5
4 6 5 4 2 1 3 6 8 8 7 7 4 5 13 16 16 15 13 11 9 8 8 8 8 8 6 5 5 5 5 5 5 4 3 4 6 6 5 4 5 5 6 6
4 4 6 8 7 7 8 10 9 8 6 6 6 10 15 17 16 15 12 10 9 9 8 8 7 7 8 7 7 6 5 5 4 3 3 5 6 5 4 4 4 5 5 4
5 4 5 4 6 5 6 8 7 5 6 7 11 14 15 15 16 14 11 9 9 9 8 7 8 8 8 8 8 7 7 6 5 4 5 5 5 4 3 2 2 1 1 4
Wind_Direction
205 220 223 223 223 239 253 261 262 253 239 242 231 233 241 250 234 223 236 243 238 219 178 150 148 149 154 151 158 167 170 158 155 148 147 138 130 119 109 104 100 88 81 71
210 223 233 235 232 229 241 257 268 277 285 283 268 241 236 260 272 258 230 235 247 233 164 146 151 153 166 162 165 168 167 158 157 145 140 133 124 116 107 97 90 87 80 72
227 227 221 233 246 243 240 247 262 272 278 277 275 263 249 251 262 266 253 229 236 239 177 159 160 161 163 169 173 171 163 157 155 139 126 118 109 115 118 119 107 96 96 80
231 241 238 228 236 243 246 251 260 267 271 270 270 270 254 245 243 243 245 235 226 232 190 167 162 160 161 162 163 149 144 144 134 131 138 143 147 147 139 131 122 119 105 100
229 232 233 231 241 246 248 251 254 257 259 263 266 270 270 267 258 244 250 229 218 225 197 166 160 151 144 143 135 122 118 121 128 132 139 141 129 117 113 109 123 135 122 127
248 241 232 237 227 231 250 258 260 262 264 261 258 260 264 260 265 256 255 214 209 215 167 150 142 133 127 122 115 112 112 110 111 110 112 109 112 115 119 131 147 172 159 157
247 252 243 230 238 225 225 239 246 239 236 247 247 248 257 259 262 270 295 100 166 148 131 132 134 129 126 125 119 116 115 112 106 102 99 103 109 116 125 144 155 219 160 136
231 233 235 226 221 242 224 225 242 261 266 273 281 278 285 301 295 261 137 118 120 122 128 133 134 131 131 127 124 124 122 118 111 106 106 109 124 136 120 74 106 118 56 94
246 240 223 216 207 221 243 228 235 250 266 275 280 288 290 260 227 229 233 221 174 129 125 127 127 128 131 131 128 127 124 120 116 113 106 99 87 85 94 91 10 88 69 105
263 288 286 219 201 205 225 245 251 252 262 271 278 282 292 332 338 261 253 247 116 117 122 125 128 131 128 125 121 114 117 117 113 113 119 112 95 95 125 129 76 68 77 68
282 283 284 267 208 219 220 229 241 260 268 274 274 276 336 357 322 300 247 191 139 135 132 129 131 128 122 119 118 116 115 116 120 120 111 114 125 132 138 106 109 104 86 169
280 277 275 273 273 263 249 245 243 250 254 258 269 281 340 14 9 6 348 31 123 124 125 126 126 123 123 123 122 119 116 115 111 104 95 91 93 99 104 104 101 128 163 275
339 271 259 263 264 269 266 254 253 262 268 263 264 273 51 32 19 18 30 63 100 114 119 121 120 122 122 120 118 110 98 91 90 92 86 69 65 72 67 84 84 17 336 309
319 285 267 263 275 308 298 293 295 284 262 260 265 293 24 27 16 30 60 78 97 113 120 121 119 115 111 107 101 90 75 64 62 64 66 53 46 54 40 38 24 359 355 344
270 271 269 273 281 283 277 273 271 292 295 291 300 359 43 19 12 50 100 116 125 126 125 123 119 114 110 103 96 87 73 58 47 50 61 53 24 344 6 22 21 25 17 8
216 278 287 280 276 278 278 278 278 268 267 279 289 36 52 40 39 49 81 125 133 132 127 123 119 116 112 106 100 91 79 61 36 22 89 147 274 32 50 32 40 37 25 14
314 291 277 274 277 277 269 274 281 284 310 346 12 45 36 41 40 37 39 87 128 126 124 122 119 115 110 106 104 104 107 122 231 220 204 166 89 75 50 28 41 31 24 22
285 295 294 282 277 263 269 290 341 353 45 36 43 40 40 56 62 47 41 64 96 112 115 115 114 111 108 107 108 117 148 206 209 191 135 96 90 88 65 50 36 34 31 18
232 252 266 272 268 264 267 24 3 355 69 35 29 20 17 26 88 57 45 65 88 100 105 108 110 111 110 113 122 139 197 204 151 118 96 75 61 53 50 48 32 31 14 4
217 226 242 253 261 270 59 26 358 309 104 31 23 12 0 349 354 68 65 79 89 97 103 108 110 110 113 129 164 178 151 116 97 87 78 69 57 47 57 55 34 18 0 6
225 229 235 246 254 259 36 329 300 290 59 19 15 10 19 47 74 98 94 94 99 103 107 109 111 113 127 154 157 128 107 97 95 98 97 80 48 48 73 58 42 22 5 1
262 264 263 260 256 222 23 11 31 33 17 14 12 34 86 103 105 106 105 107 109 110 112 114 117 123 140 140 118 103 101 108 115 111 95 81 62 41 48 43 45 31 7 8
282 324 346 10 31 73 51 35 30 9 0 2 4 63 116 120 118 115 114 114 116 121 126 136 138 138 142 139 133 125 133 137 120 99 86 82 87 75 48 38 39 30 20 20
326 336 305 295 202 127 29 24 23 17 2 352 5 111 125 125 124 122 121 123 130 143 149 151 146 139 136 135 128 115 109 101 88 82 87 100 92 84 69 45 41 40 24 21
300 293 295 288 316 342 33 25 11 8 16 38 75 108 123 126 126 127 131 143 158 161 155 149 139 125 115 111 105 97 88 82 90 87 83 89 80 71 68 68 47 45 60 40
306 315 305 321 18 354 354 9 13 33 62 88 102 107 115 123 129 134 143 152 151 144 141 132 121 113 109 104 92 79 68 55 41 60 64 72 68 59 55 81 138 107 121 190